Location: Clinton NY
(43.0598°N, 75.3602°W)
Time: 12:26:35
(UTC-05:00)

Amateur Radio Satellites - All Passes

Search period start: 24 January 2017 11:56
Search period end: 25 January 2017 11:56
Location: Clinton NY, 43.0598°N, 75.3602°W

Satellite Date Start Highest point End Downlink Frequencies (MHz)
Time Altitude Azimuth
DUCHIFAT 1 24 Jan 11:56:47 12:00:03 22° 266° (W) 12:03:21 145.980
ESTCUBE 1 24 Jan 12:03:29 12:07:54 52° 288° (WNW) 12:12:17 437.505/2401.250
UKube-1 24 Jan 12:03:54 12:07:02 20° 93° (E) 12:10:11 .
NANOSAT C BR1 24 Jan 12:05:21 12:08:06 17° 268° (W) 12:10:52 145.865
AIST 1 24 Jan 12:11:43 12:13:50 13° 84° (E) 12:15:56
Oscar 19 24 Jan 12:12:23 12:17:25 53° 71° (ENE) 12:22:29 437.125/150
BUGSAT 1 24 Jan 12:12:33 12:16:19 38° 262° (W) 12:20:06 437.445
DX 1 24 Jan 12:13:06 12:17:02 33° 97° (E) 12:20:58 434.975-435.025
BY70-1 24 Jan 12:14:02 12:15:15 12° 296° (WNW) 12:16:26 436.1900
Cosmos 2504 24 Jan 12:22:26 12:23:05 10° 73° (ENE) 12:23:44 435.465 / 435.565
CUBEBUG 1 24 Jan 12:30:38 12:34:44 43° 289° (WNW) 12:38:48 437.445
AO-85 24 Jan 12:51:25 12:56:07 77° 121° (ESE) 13:00:29 145.980
AO-7 24 Jan 12:53:13 12:59:35 25° 52° (NE) 13:05:57 29.400- 29.500
50 SAT 24 Jan 12:58:19 13:01:36 35° 288° (WNW) 13:04:50 437.505
AISAT 24 Jan 12:59:00 13:02:59 35° 291° (WNW) 13:06:58 437.250
Gurwin Techsat 1B 24 Jan 13:01:55 13:07:14 81° 73° (ENE) 13:12:34 435.225
TISAT 1 24 Jan 13:03:37 13:07:12 27° 96° (E) 13:10:46 437.305
ITAMSAT 1 24 Jan 13:06:40 13:10:21 20° 62° (ENE) 13:14:03 435.822/435.867
DANDE 24 Jan 13:22:49 13:30:04 36° 69° (ENE) 13:37:32 436.750
SPROUT 24 Jan 13:27:33 13:30:58 24° 293° (WNW) 13:34:22 437.525
CUSAT 1 24 Jan 13:31:00 13:39:03 86° 81° (E) 13:46:08 437.405
VELOX 1 24 Jan 13:32:55 13:35:54 18° 296° (WNW) 13:38:53 145.980
UKube-1 24 Jan 13:39:12 13:43:13 38° 290° (WNW) 13:47:12 .
Cosmos 2491 24 Jan 13:42:15 13:50:37 51° 271° (W) 13:59:00 435.465 / 435.565
ITUPSAT 1 24 Jan 13:45:19 13:48:20 16° 91° (E) 13:51:19 437.325
YUBILEINY 24 Jan 13:46:31 13:55:20 78° 95° (E) 14:04:11 435.215
AIST 1 24 Jan 13:46:39 13:50:55 53° 281° (W) 13:55:11
DX 1 24 Jan 13:49:36 13:53:04 23° 294° (WNW) 13:56:30 434.975-435.025
Oscar 19 24 Jan 13:53:17 13:57:03 20° 268° (W) 14:00:49 437.125/150
SO-50 24 Jan 13:59:16 14:02:25 18° 39° (NE) 14:05:31 436.795
Cosmos 2504 24 Jan 14:06:28 14:14:51 61° 92° (E) 14:22:43 435.465 / 435.565
BEESAT 24 Jan 14:15:52 14:20:12 33° 97° (E) 14:24:31 436.000
SWISSCUBE 24 Jan 14:17:54 14:22:24 39° 98° (E) 14:26:52 437.505
AO-85 24 Jan 14:34:03 14:36:58 17° 320° (NW) 14:39:46 145.980
O/OREOS (USA 219) 24 Jan 14:37:25 14:41:40 39° 61° (ENE) 14:45:55 437.305
TISAT 1 24 Jan 14:39:15 14:42:45 26° 292° (WNW) 14:46:14 437.305
BEESAT 3 24 Jan 14:40:21 14:43:52 33° 116° (ESE) 14:47:26 437.485
AO-7 24 Jan 14:43:02 14:51:25 85° 252° (WSW) 14:59:52 29.400- 29.500
ITAMSAT 1 24 Jan 14:44:19 14:49:23 57° 259° (W) 14:54:30 435.822/435.867
Gurwin Techsat 1B 24 Jan 14:45:23 14:47:47 13° 271° (W) 14:50:13 435.225
BRITE-PL 24 Jan 14:54:23 14:58:30 21° 63° (ENE) 15:02:31 437.365/2234.400
DANDE 24 Jan 15:05:13 15:13:07 59° 266° (W) 15:21:09 436.750
MOZHAYETS 4 24 Jan 15:08:18 15:12:36 36° 97° (E) 15:16:53
CUSAT 1 24 Jan 15:14:33 15:19:51 20° 280° (W) 15:24:49 437.405
KKS-1 24 Jan 15:16:29 15:18:31 13° 90° (E) 15:20:31 437.445
ITUPSAT 1 24 Jan 15:21:47 15:26:31 57° 288° (WNW) 15:31:13 437.325
HORYU 2 24 Jan 15:25:01 15:27:25 15° 61° (ENE) 15:29:49 437.375
BEESAT 2 24 Jan 15:34:48 15:38:39 56° 120° (ESE) 15:42:35 435.950
SO-50 24 Jan 15:38:53 15:43:23 73° 238° (WSW) 15:47:49 436.795
YUBILEINY 24 Jan 15:46:17 15:53:07 24° 296° (WNW) 16:00:02 435.215
BEESAT 24 Jan 15:53:48 15:57:53 28° 294° (WNW) 16:01:57 436.000
M-CUBED/EXP-1 PRIME 24 Jan 15:54:01 15:56:37 21° 101° (E) 15:59:09 437.505
SWISSCUBE 24 Jan 15:56:06 15:59:58 25° 295° (WNW) 16:03:50 437.505
STARS 24 Jan 15:56:15 15:58:54 16° 92° (E) 16:01:31 437.465
Cosmos 2504 24 Jan 16:01:23 16:08:39 31° 291° (WNW) 16:15:34 435.465 / 435.565
CUBESAT XI-V 24 Jan 16:06:47 16:10:33 24° 93° (E) 16:14:17 437.345
GOMX 1 24 Jan 16:11:50 16:16:45 40° 71° (ENE) 16:21:25 467.674
O/OREOS (USA 219) 24 Jan 16:17:24 16:20:48 21° 258° (WSW) 16:24:12 437.305
NOAA 18 24 Jan 16:17:35 16:20:08 13° 56° (NE) 16:22:41 137.9125
BEESAT 3 24 Jan 16:18:16 16:21:32 25° 314° (NW) 16:24:51 437.485
AUBIESAT-1 24 Jan 16:26:11 16:29:23 44° 105° (ESE) 16:32:33 437.475
DOVE 4 24 Jan 16:28:32 16:32:17 23° 67° (ENE) 16:35:52 437.250
CUTE-I 24 Jan 16:28:38 16:33:01 27° 64° (ENE) 16:37:25 437.470
BRITE-PL 24 Jan 16:30:51 16:36:29 63° 260° (W) 16:41:59 437.365/2234.400
AO-7 24 Jan 16:40:09 16:45:18 17° 271° (W) 16:50:31 29.400- 29.500
MOZHAYETS 4 24 Jan 16:45:49 16:49:35 25° 294° (WNW) 16:53:19
KKS-1 24 Jan 16:51:05 16:55:28 62° 287° (WNW) 16:59:50 437.445
DANDE 24 Jan 16:51:50 16:54:20 12° 284° (WNW) 16:56:52 436.750
LilacSat-2 24 Jan 16:54:27 16:57:57 38° 72° (ENE) 17:01:30 437.200
HORYU 2 24 Jan 16:59:06 17:03:28 61° 259° (WSW) 17:07:51 437.375
NOAA 15 24 Jan 17:04:30 17:09:40 57° 71° (ENE) 17:14:54 137.62
Cubesat XI-IV 24 Jan 17:12:19 17:17:33 63° 72° (ENE) 17:22:49 437.490
HO-68 24 Jan 17:12:28 17:17:45 23° 55° (NE) 17:23:02 435.675
BEESAT 2 24 Jan 17:14:00 17:16:46 18° 319° (NW) 17:19:34 435.950
CINEMA 3 24 Jan 17:23:59 17:26:54 18° 66° (ENE) 17:29:45 145.822/145.860
CUTE 1.7 + AOD 2 24 Jan 17:25:48 17:26:40 11° 60° (ENE) 17:27:31 437.475
M-CUBED/EXP-1 PRIME 24 Jan 17:28:31 17:31:03 21° 298° (WNW) 17:33:33 437.505
STARS 24 Jan 17:31:17 17:35:31 50° 288° (WNW) 17:39:44 437.465
CUBESAT XI-V 24 Jan 17:43:43 17:48:01 37° 290° (WNW) 17:52:16 437.345
GOMX 1 24 Jan 17:50:27 17:54:52 26° 265° (W) 17:59:08 467.674
CANX-2 24 Jan 17:53:10 17:56:33 24° 67° (ENE) 17:59:58 2200.000
NOAA 18 24 Jan 17:54:27 17:59:58 85° 74° (ENE) 18:05:28 137.9125
SEEDS 24 Jan 17:55:23 17:57:47 15° 63° (ENE) 18:00:11 437.485
AUBIESAT-1 24 Jan 18:02:19 18:03:27 11° 302° (WNW) 18:04:34 437.475
DOVE 4 24 Jan 18:05:10 18:09:46 40° 262° (W) 18:14:08 437.250
Cosmos 2499 24 Jan 18:07:30 18:14:33 33° 86° (E) 18:21:11 435.465 / 435.565
CUTE-I 24 Jan 18:07:50 18:12:51 42° 262° (W) 18:17:53 437.470
STRAND 1 24 Jan 18:08:33 18:11:00 13° 89° (E) 18:13:27 437.568
AIST 2 24 Jan 18:14:07 18:18:08 55° 119° (ESE) 18:22:14 435.215
LilacSat-2 24 Jan 18:30:09 18:32:25 15° 268° (W) 18:34:42 437.200
GONETS M04 24 Jan 18:35:34 18:43:28 41° 86° (E) 18:51:27
Oscar 11 24 Jan 18:43:28 18:43:56 10° 60° (ENE) 18:44:23 145.826/435.025
NOAA 15 24 Jan 18:46:06 18:49:48 19° 268° (W) 18:53:33 137.62
Cubesat XI-IV 24 Jan 18:54:38 18:58:03 17° 269° (W) 19:01:30 437.490
HO-68 24 Jan 18:57:29 19:04:42 80° 255° (WSW) 19:11:57 435.675
CUTE 1.7 + AOD 2 24 Jan 18:57:33 19:01:49 82° 257° (WSW) 19:06:08 437.475
CINEMA 3 24 Jan 18:59:38 19:03:46 42° 262° (W) 19:07:47 145.822/145.860
CUBEBUG 2 24 Jan 19:21:57 19:26:04 77° 76° (ENE) 19:30:14 437.445
FUNcube-1 24 Jan 19:22:43 19:26:12 27° 68° (ENE) 19:29:43 145.935
COMPASS 1 24 Jan 19:24:52 19:29:04 89° 91° (E) 19:33:19 437.405
CANX-2 24 Jan 19:28:25 19:32:14 32° 264° (W) 19:36:07 2200.000
SEEDS 24 Jan 19:28:52 19:33:01 54° 260° (W) 19:37:13 437.485
AAUSAT CUBESAT 2 24 Jan 19:31:11 19:35:22 80° 76° (ENE) 19:39:35 437.432
NOAA 18 24 Jan 19:38:50 19:41:17 13° 271° (W) 19:43:43 137.9125
UWE-3 24 Jan 19:40:10 19:44:17 77° 75° (ENE) 19:48:28 435.000/436.395/437.385
AO-85 24 Jan 19:43:32 19:44:57 12° 35° (NE) 19:46:21 145.980
STRAND 1 24 Jan 19:45:35 19:50:44 76° 286° (WNW) 19:55:53 437.568
ZACube-1 24 Jan 19:48:00 19:52:02 55° 74° (ENE) 19:56:09 437.345
ISS 24 Jan 19:52:15 19:54:52 22° 135° (SE) 19:57:28 145.825
AIST 2 24 Jan 19:53:53 19:56:56 19° 318° (NW) 20:00:01 435.215
Cosmos 2499 24 Jan 19:59:20 20:07:22 53° 284° (WNW) 20:14:50 435.465 / 435.565
DELFI C3 24 Jan 20:06:40 20:09:57 25° 68° (ENE) 20:13:15 145.870
Oscar 11 24 Jan 20:15:02 20:19:21 87° 256° (WSW) 20:23:43 145.826/435.025
GONETS M04 24 Jan 20:31:54 20:40:10 46° 287° (WNW) 20:48:33
PRISM 24 Jan 20:47:48 20:51:15 25° 96° (E) 20:54:40 437.425
HO-68 24 Jan 20:50:01 20:53:29 14° 273° (W) 20:56:57 435.675
HUMSAT D 24 Jan 20:51:54 20:55:48 43° 72° (ENE) 20:59:47 437.325/437.525
FUNcube-1 24 Jan 20:58:54 21:02:24 26° 265° (W) 21:05:55 145.935
UNISAT 6 24 Jan 21:05:02 21:07:34 15° 91° (E) 21:10:07 437.425
TIGRISAT 24 Jan 21:16:22 21:19:27 18° 92° (E) 21:22:34 435.000
AO-85 24 Jan 21:22:06 21:26:02 81° 56° (ENE) 21:29:56 145.980
ZACube-1 24 Jan 21:26:52 21:28:43 13° 270° (W) 21:30:34 437.345
STRAND 1 24 Jan 21:27:41 21:29:01 11° 304° (NW) 21:30:21 437.568
ISS 24 Jan 21:27:58 21:31:09 49° 332° (NNW) 21:34:20 145.825
ESTCUBE 1 24 Jan 21:28:33 21:31:32 18° 63° (ENE) 21:34:34 437.505/2401.250
JAS-2 24 Jan 21:31:29 21:36:20 18° 88° (E) 21:41:19 435.910
ANTELSAT 24 Jan 21:32:16 21:36:09 28° 96° (E) 21:40:04 437.575/2403.000
DELFI C3 24 Jan 21:41:14 21:44:40 27° 265° (W) 21:48:06 145.870
RS-15 24 Jan 21:51:00 22:01:41 42° 107° (ESE) 22:12:45 29.354- 29.394
CUBEBUG 1 24 Jan 21:52:23 21:55:19 18° 64° (ENE) 21:58:14 437.445
PCSat 24 Jan 22:08:06 22:09:51 12° 102° (ESE) 22:11:35 145.827
AISAT 24 Jan 22:21:13 22:24:43 23° 66° (ENE) 22:28:13 437.250
PRISM 24 Jan 22:23:01 22:26:29 27° 292° (WNW) 22:29:55 437.425
BY70-1 24 Jan 22:26:21 22:29:25 54° 260° (W) 22:32:40 436.1900
HUMSAT D 24 Jan 22:29:03 22:31:38 16° 269° (W) 22:34:15 437.325/437.525
UNISAT 6 24 Jan 22:40:11 22:44:35 57° 287° (WNW) 22:49:04 437.425
SPROUT 24 Jan 22:45:43 22:49:18 27° 68° (ENE) 22:52:55 437.525
TIGRISAT 24 Jan 22:52:03 22:56:20 46° 288° (WNW) 23:00:42 435.000
VELOX 1 24 Jan 22:53:24 22:57:38 46° 71° (ENE) 23:01:53 145.980
BEESAT 3 24 Jan 22:56:07 22:59:40 29° 47° (NE) 23:03:12 437.485
UKube-1 24 Jan 22:59:24 23:02:32 20° 65° (ENE) 23:05:41 .
ESTCUBE 1 24 Jan 23:03:31 23:07:56 51° 260° (W) 23:12:24 437.505/2401.250
ISS 24 Jan 23:05:44 23:08:10 19° 352° (N) 23:10:37 145.825
QB50P1 24 Jan 23:07:04 23:10:41 27° 96° (E) 23:14:17 145.935-145.965
ANTELSAT 24 Jan 23:08:54 23:12:48 30° 291° (WNW) 23:16:47 437.575/2403.000
DX 1 24 Jan 23:09:21 23:13:16 33° 69° (ENE) 23:17:12 434.975-435.025
POLYITAN 1 24 Jan 23:12:43 23:16:31 31° 97° (E) 23:20:18 437.675
QB50P2 24 Jan 23:14:05 23:17:59 34° 97° (E) 23:21:52 145.880/145.840
JAS-2 24 Jan 23:14:39 23:22:04 88° 105° (ESE) 23:29:57 435.910
CUBEBUG 1 24 Jan 23:26:59 23:31:14 48° 261° (W) 23:35:29 437.445
50 SAT 24 Jan 23:33:03 23:36:38 83° 257° (WSW) 23:40:14 437.505
POPSAT HIP 1 24 Jan 23:34:08 23:38:17 52° 100° (E) 23:42:25 437.405
DUCHIFAT 1 24 Jan 23:38:36 23:42:42 50° 100° (E) 23:46:48 145.980
NANOSAT C BR1 24 Jan 23:46:46 23:50:58 69° 101° (E) 23:55:11 145.865
PCSat 24 Jan 23:46:57 23:52:21 85° 119° (ESE) 23:57:50 145.827
BEESAT 2 24 Jan 23:51:37 23:55:32 45° 52° (NE) 23:59:26 435.950
AIST 1 24 Jan 23:52:39 23:56:39 37° 77° (ENE) 00:00:36
BUGSAT 1 24 Jan 23:53:14 23:56:37 25° 96° (E) 00:00:01 437.445
YUBILEINY 24 Jan 23:55:52 00:04:06 41° 72° (ENE) 00:12:13 435.215
TISAT 1 24 Jan 23:56:13 23:59:33 24° 67° (ENE) 00:02:53 437.305
AISAT 24 Jan 23:56:54 00:00:59 35° 262° (W) 00:05:04 437.250
Cosmos 2504 24 Jan 23:59:18 00:04:28 20° 63° (ENE) 00:09:31 435.465 / 435.565
RS-15 25 Jan 00:01:45 00:13:37 65° 311° (NW) 00:25:58 29.354- 29.394
PHONESAT 2.4 25 Jan 00:18:12 00:20:06 25° 166° (SSE) 00:22:00 2401.200-2431.200
SPROUT 25 Jan 00:21:34 00:25:10 27° 264° (W) 00:28:48 437.525
Oscar 19 25 Jan 00:24:08 00:27:26 17° 91° (E) 00:30:43 437.125/150
VELOX 1 25 Jan 00:31:22 00:34:19 17° 268° (W) 00:37:17 145.980
BEESAT 3 25 Jan 00:33:47 00:37:14 28° 245° (WSW) 00:40:40 437.485
UKube-1 25 Jan 00:34:13 00:38:18 40° 261° (W) 00:42:24 .
QB50P1 25 Jan 00:42:48 00:46:23 27° 292° (WNW) 00:49:58 145.935-145.965
ISS 25 Jan 00:42:54 00:45:29 21° 12° (NNE) 00:48:02 145.825
DX 1 25 Jan 00:45:59 00:49:29 23° 265° (W) 00:53:00 434.975-435.025
Cosmos 2491 25 Jan 00:48:08 00:56:02 41° 86° (E) 01:04:00 435.465 / 435.565
POLYITAN 1 25 Jan 00:48:44 00:52:10 24° 293° (WNW) 00:55:35 437.675
QB50P2 25 Jan 00:50:19 00:53:35 22° 294° (WNW) 00:56:50 145.880/145.840
ITUPSAT 1 25 Jan 00:52:49 00:56:27 22° 64° (ENE) 01:00:06 437.325
CUSAT 1 25 Jan 00:54:53 00:57:20 12° 75° (ENE) 00:59:56 437.405
JAS-2 25 Jan 01:01:02 01:06:18 22° 302° (WNW) 01:11:48 435.910
POPSAT HIP 1 25 Jan 01:11:09 01:13:38 15° 297° (WNW) 01:16:06 437.405
DUCHIFAT 1 25 Jan 01:15:27 01:17:59 16° 296° (WNW) 01:20:29 145.980
Gurwin Techsat 1B 25 Jan 01:17:34 01:22:11 29° 95° (E) 01:26:47 435.225
BEESAT 25 Jan 01:22:59 01:27:27 42° 70° (ENE) 01:31:57 436.000
NANOSAT C BR1 25 Jan 01:24:30 01:26:08 12° 299° (WNW) 01:27:46 145.865
SWISSCUBE 25 Jan 01:25:01 01:29:37 50° 71° (ENE) 01:34:14 437.505
BUGSAT 1 25 Jan 01:28:31 01:31:55 27° 292° (WNW) 01:35:21 437.445
BEESAT 2 25 Jan 01:30:15 01:32:59 18° 249° (WSW) 01:35:43 435.950
AIST 1 25 Jan 01:31:03 01:33:55 18° 274° (W) 01:36:47
TISAT 1 25 Jan 01:31:21 01:35:03 30° 263° (W) 01:38:45 437.305
PCSat 25 Jan 01:32:40 01:36:28 19° 319° (NW) 01:40:17 145.827
Cosmos 2504 25 Jan 01:51:26 01:58:45 76° 265° (W) 02:05:52 435.465 / 435.565
PHONESAT 2.4 25 Jan 01:51:27 01:53:33 40° 182° (S) 01:55:40 2401.200-2431.200
YUBILEINY 25 Jan 01:52:44 02:00:58 47° 272° (W) 02:09:09 435.215
Oscar 19 25 Jan 02:02:04 02:07:11 61° 288° (WNW) 02:12:13 437.125/150
MOZHAYETS 4 25 Jan 02:10:55 02:15:08 38° 70° (ENE) 02:19:24
KKS-1 25 Jan 02:15:31 02:18:00 15° 62° (ENE) 02:20:29 437.445
RS-15 25 Jan 02:18:52 02:29:11 30° 341° (NNW) 02:39:39 29.354- 29.394
ISS 25 Jan 02:19:08 02:22:22 70° 31° (NNE) 02:25:36 145.825
ITUPSAT 1 25 Jan 02:29:27 02:33:59 43° 261° (W) 02:38:33 437.325
CUSAT 1 25 Jan 02:31:57 02:37:36 79° 97° (E) 02:44:49 437.405
DANDE 25 Jan 02:33:41 02:37:04 21° 81° (E) 02:41:10 436.750
AIST 2 25 Jan 02:34:26 02:38:34 49° 52° (NE) 02:42:41 435.215
M-CUBED/EXP-1 PRIME 25 Jan 02:39:55 02:43:52 41° 67° (ENE) 02:47:34 437.505
AO-7 25 Jan 02:44:13 02:51:24 31° 95° (E) 02:58:29 29.400- 29.500
Cosmos 2491 25 Jan 02:44:32 02:52:46 46° 287° (WNW) 03:01:05 435.465 / 435.565
STARS 25 Jan 02:53:57 02:56:44 17° 63° (ENE) 02:59:32 437.465
ITAMSAT 1 25 Jan 02:56:02 03:01:04 47° 99° (E) 03:06:06 435.822/435.867
Gurwin Techsat 1B 25 Jan 02:57:18 03:02:10 37° 292° (WNW) 03:07:02 435.225
BEESAT 25 Jan 03:01:47 03:05:24 21° 267° (W) 03:09:02 436.000
SWISSCUBE 25 Jan 03:04:24 03:07:40 18° 268° (W) 03:10:58 437.505
CUBESAT XI-V 25 Jan 03:10:50 03:14:45 27° 67° (ENE) 03:18:40 437.345
AUBIESAT-1 25 Jan 03:11:55 03:16:03 76° 72° (ENE) 03:19:54 437.475
PHONESAT 2.4 25 Jan 03:25:15 03:26:58 20° 198° (SSW) 03:28:42 2401.200-2431.200
Cosmos 2504 25 Jan 03:48:24 03:50:40 12° 285° (WNW) 03:52:55 435.465 / 435.565
MOZHAYETS 4 25 Jan 03:48:51 03:52:25 22° 267° (W) 03:56:01
KKS-1 25 Jan 03:49:41 03:54:04 60° 259° (W) 03:58:29 437.445
ISS 25 Jan 03:56:34 03:58:29 15° 228° (SW) 04:00:25 145.825
AIST 2 25 Jan 04:13:47 04:16:41 18° 249° (WSW) 04:19:35 435.215
DANDE 25 Jan 04:14:55 04:19:10 42° 290° (WNW) 04:24:48 436.750
M-CUBED/EXP-1 PRIME 25 Jan 04:15:31 04:18:25 18° 260° (W) 04:21:12 437.505
CUSAT 1 25 Jan 04:16:13 04:20:39 20° 302° (WNW) 04:25:43 437.405
STARS 25 Jan 04:28:27 04:32:42 50° 260° (W) 04:36:58 437.465
BRITE-PL 25 Jan 04:35:42 04:40:08 39° 96° (E) 04:44:15 437.365/2234.400
ITAMSAT 1 25 Jan 04:36:08 04:40:15 24° 297° (WNW) 04:44:21 435.822/435.867
AO-7 25 Jan 04:36:24 04:44:37 63° 294° (WNW) 04:52:47 29.400- 29.500
RS-15 25 Jan 04:36:39 04:46:59 29° 17° (NNE) 04:57:11 29.354- 29.394
GONETS M04 25 Jan 04:44:37 04:51:05 22° 62° (ENE) 04:57:30
CUBESAT XI-V 25 Jan 04:47:42 04:51:58 34° 263° (W) 04:56:17 437.345
HORYU 2 25 Jan 04:49:25 04:52:58 23° 95° (E) 04:56:30 437.375
O/OREOS (USA 219) 25 Jan 04:50:43 04:54:49 37° 106° (ESE) 04:58:57 437.305
NOAA 15 25 Jan 05:19:34 05:23:22 20° 92° (E) 05:27:09 137.62
STRAND 1 25 Jan 05:24:47 05:28:40 23° 63° (ENE) 05:32:35 437.568
Cubesat XI-IV 25 Jan 05:29:10 05:33:23 23° 93° (E) 05:37:35 437.490
Cosmos 2499 25 Jan 05:49:10 05:56:09 57° 77° (ENE) 06:03:06 435.465 / 435.565
GOMX 1 25 Jan 05:50:41 05:55:02 87° 287° (WNW) 05:59:11 467.674
SO-50 25 Jan 05:54:04 05:58:07 29° 114° (ESE) 06:02:08 436.795
LilacSat-2 25 Jan 06:00:32 06:04:20 51° 100° (E) 06:08:07 437.200
DOVE 4 25 Jan 06:02:47 06:06:47 46° 99° (E) 06:10:47 437.250
BRITE-PL 25 Jan 06:14:45 06:18:20 22° 296° (WNW) 06:21:43 437.365/2234.400
NOAA 18 25 Jan 06:15:51 06:20:44 32° 97° (E) 06:25:35 137.9125
CUTE-I 25 Jan 06:23:22 06:28:44 72° 103° (ESE) 06:34:04 437.470
HORYU 2 25 Jan 06:25:31 06:29:36 36° 291° (WNW) 06:33:39 437.375
HO-68 25 Jan 06:25:39 06:30:27 19° 90° (E) 06:35:11 435.675
O/OREOS (USA 219) 25 Jan 06:30:43 06:34:20 23° 304° (NW) 06:37:57 437.305
AO-7 25 Jan 06:31:13 06:35:46 16° 316° (NW) 06:40:19 29.400- 29.500
GONETS M04 25 Jan 06:40:13 06:49:07 87° 264° (W) 06:57:59
CUTE 1.7 + AOD 2 25 Jan 06:42:36 06:45:19 16° 91° (E) 06:48:02 437.475
RS-15 25 Jan 06:50:30 07:02:48 61° 47° (NE) 07:14:37 29.354- 29.394
PCSat 25 Jan 06:51:39 06:55:07 17° 39° (NE) 06:58:35 145.827
CINEMA 3 25 Jan 06:52:38 06:56:35 37° 98° (E) 07:00:40 145.822/145.860
NOAA 15 25 Jan 06:58:18 07:03:29 56° 289° (WNW) 07:08:38 137.62
STRAND 1 25 Jan 07:02:37 07:07:31 48° 261° (W) 07:12:29 437.568
COMPASS 1 25 Jan 07:08:17 07:10:20 13° 90° (E) 07:12:24 437.405
Cubesat XI-IV 25 Jan 07:08:33 07:13:40 48° 291° (WNW) 07:18:46 437.490
CANX-2 25 Jan 07:11:58 07:16:01 39° 97° (E) 07:20:02 2200.000
SEEDS 25 Jan 07:12:10 07:15:34 23° 94° (E) 07:18:55 437.485
CUBEBUG 2 25 Jan 07:12:28 07:15:08 16° 91° (E) 07:17:50 437.445
AAUSAT CUBESAT 2 25 Jan 07:14:30 07:16:00 12° 89° (E) 07:17:30 437.432
UWE-3 25 Jan 07:29:37 07:32:13 15° 91° (E) 07:34:50 435.000/436.395/437.385
SO-50 25 Jan 07:34:05 07:38:28 38° 312° (NW) 07:42:49 436.795
LilacSat-2 25 Jan 07:36:19 07:38:11 13° 296° (WNW) 07:40:03 437.200
ZACube-1 25 Jan 07:37:37 07:38:35 11° 89° (E) 07:39:33 437.345
PRISM 25 Jan 07:38:06 07:41:20 22° 66° (ENE) 07:44:35 437.425
DOVE 4 25 Jan 07:41:38 07:44:09 16° 296° (WNW) 07:46:38 437.250
Cosmos 2499 25 Jan 07:43:13 07:48:43 25° 277° (W) 07:54:14 435.465 / 435.565
NOAA 18 25 Jan 07:56:27 08:01:23 36° 294° (WNW) 08:06:18 137.9125
Oscar 11 25 Jan 08:02:23 08:05:09 16° 91° (E) 08:07:54 145.826/435.025
CUTE-I 25 Jan 08:04:49 08:08:10 17° 300° (WNW) 08:11:31 437.470
UNISAT 6 25 Jan 08:05:30 08:07:47 14° 62° (ENE) 08:10:04 437.425
HO-68 25 Jan 08:11:44 08:18:57 82° 288° (WNW) 08:26:06 435.675
TIGRISAT 25 Jan 08:16:34 08:19:20 17° 64° (ENE) 08:22:06 435.000
CUTE 1.7 + AOD 2 25 Jan 08:17:17 08:21:24 46° 288° (WNW) 08:25:29 437.475
CINEMA 3 25 Jan 08:30:23 08:33:32 21° 293° (WNW) 08:36:44 145.822/145.860
ANTELSAT 25 Jan 08:32:19 08:35:50 26° 67° (ENE) 08:39:23 437.575/2403.000
PCSat 25 Jan 08:33:55 08:39:23 82° 59° (ENE) 08:44:49 145.827
GONETS M04 25 Jan 08:39:11 08:44:35 18° 284° (WNW) 08:49:58
COMPASS 1 25 Jan 08:42:07 08:46:14 54° 286° (WNW) 08:50:18 437.405
FUNcube-1 25 Jan 08:44:36 08:48:57 51° 99° (E) 08:53:21 145.935
SEEDS 25 Jan 08:47:30 08:51:17 32° 290° (WNW) 08:55:03 437.485
AAUSAT CUBESAT 2 25 Jan 08:47:44 08:51:52 61° 286° (WNW) 08:55:58 437.432
CUBEBUG 2 25 Jan 08:47:45 08:52:01 52° 287° (WNW) 08:56:25 437.445
CANX-2 25 Jan 08:48:28 08:51:36 20° 294° (WNW) 08:54:43 2200.000
RS-15 25 Jan 09:03:38 09:14:58 46° 251° (WSW) 09:25:53 29.354- 29.394
UWE-3 25 Jan 09:04:38 09:08:57 54° 287° (WNW) 09:13:23 435.000/436.395/437.385
ZACube-1 25 Jan 09:10:54 09:15:20 76° 285° (WNW) 09:19:50 437.345
PRISM 25 Jan 09:12:41 09:16:26 33° 263° (W) 09:20:13 437.425
DELFI C3 25 Jan 09:16:58 09:20:37 33° 97° (E) 09:24:13 145.870
JAS-2 25 Jan 09:28:50 09:33:57 40° 66° (ENE) 09:39:38 435.910
Oscar 11 25 Jan 09:37:20 09:41:32 47° 288° (WNW) 09:45:43 145.826/435.025
UNISAT 6 25 Jan 09:39:51 09:44:02 57° 260° (W) 09:48:15 437.425
TIGRISAT 25 Jan 09:51:36 09:55:40 45° 261° (W) 09:59:47 435.000
QB50P1 25 Jan 10:00:34 10:03:53 23° 67° (ENE) 10:07:12 145.935-145.965
HO-68 25 Jan 10:01:08 10:05:37 18° 308° (NW) 10:10:05 435.675
POLYITAN 1 25 Jan 10:06:17 10:09:48 27° 68° (ENE) 10:13:19 437.675
QB50P2 25 Jan 10:07:36 10:11:14 29° 69° (ENE) 10:14:53 145.880/145.840
ANTELSAT 25 Jan 10:08:48 10:12:28 28° 264° (W) 10:16:11 437.575/2403.000
HUMSAT D 25 Jan 10:09:14 10:13:33 75° 102° (ESE) 10:17:51 437.325/437.525
PCSat 25 Jan 10:19:16 10:22:02 14° 257° (WSW) 10:24:48 145.827
FUNcube-1 25 Jan 10:21:56 10:24:48 17° 296° (WNW) 10:27:41 145.935
POPSAT HIP 1 25 Jan 10:27:18 10:31:15 43° 72° (ENE) 10:35:14 437.405
DUCHIFAT 1 25 Jan 10:31:07 10:35:01 41° 71° (ENE) 10:38:56 145.980
NANOSAT C BR1 25 Jan 10:39:25 10:43:30 56° 73° (ENE) 10:47:36 145.865
BUGSAT 1 25 Jan 10:44:11 10:47:11 21° 66° (ENE) 10:50:12 437.445
DELFI C3 25 Jan 10:52:16 10:55:12 20° 293° (WNW) 10:58:05 145.870
ESTCUBE 1 25 Jan 10:55:10 10:59:10 30° 96° (E) 11:03:08 437.505/2401.250
Cosmos 2491 25 Jan 10:57:16 11:03:42 22° 62° (ENE) 11:10:06 435.465 / 435.565
BY70-1 25 Jan 10:59:18 11:02:25 61° 102° (ESE) 11:05:15 436.1900
JAS-2 25 Jan 11:14:26 11:19:11 30° 267° (W) 11:24:26 435.910
CUBEBUG 1 25 Jan 11:14:43 11:18:26 28° 95° (E) 11:22:07 437.445
CUSAT 1 25 Jan 11:24:17 11:28:33 15° 55° (NE) 11:32:37 437.405
QB50P1 25 Jan 11:35:45 11:39:30 31° 263° (W) 11:43:15 145.935-145.965
AO-85 25 Jan 11:37:43 11:41:18 22° 113° (ESE) 11:44:43 145.980
Oscar 19 25 Jan 11:41:26 11:45:50 29° 65° (ENE) 11:50:14 437.125/150
POLYITAN 1 25 Jan 11:41:58 11:45:31 27° 264° (W) 11:49:06 437.675
QB50P2 25 Jan 11:43:35 11:47:01 24° 265° (W) 11:50:28 145.880/145.840
AISAT 25 Jan 11:45:38 11:49:44 38° 98° (E) 11:53:48 437.250
HUMSAT D 25 Jan 11:47:02 11:48:33 12° 299° (WNW) 11:50:04 437.325/437.525
